Location: Central Falls
(41.8900°N, 71.3929°W)
Time: 10:50:42
(UTC+00:00)

A-11 Canister half - Pass Details

Date: 11 December 2023
Orbit: 1512 x 1687 km, 47.2° (Epoch: 20 February)

Event Time Altitude Azimuth Distance (km) Brightness Sun altitude
Rises 03:27:47 0° 236° (SW) 4,677 - -66.0°
Reaches altitude 10° 03:30:47 10° 235° (SW) 3,712 - -66.4°
Maximum altitude 03:40:12 81° 150° (SSE) 1,600 - -67.5°
Drops below altitude 10° 03:50:01 10° 65° (ENE) 3,858 - -68.5°
Sets 03:53:11 0° 65° (ENE) 4,869 - -68.8°
